Flag for Germany Weather past 2 weeks in Elmshorn, Schleswig-Holstein, Germany

Now
64 °F

Passing clouds.


Feels Like: 64 °F
Forecast: 48 / 62 °F
Wind: 10 mph from Southwest

Location: Hamburg-Fuhlsbuettel

Current Time: Sep 3, 2015 at 2:56:59 PM

Latest Report: Sep 3, 2015 at 2:20 PM


Visibility: N/A

Pressure: 29.92 "Hg

Humidity: 49%

Dew point: 45 °F

Location of ElmshornLocation

Historic Weather in Elmshorn — Graph

°F

Elmshorn temperature yesterday

Maximum temperature yesterday: 66 °F (at 2:20 PM)
Minimum temperature yesterday: 54 °F (at 2:20 AM)
Average temperature yesterday: 59 °F

Past Weeks' High & Low Weather Summary

 TemperatureHumidityPressure
High82 °F (Aug 31, 4:50 PM)100% (Aug 19, 10:50 PM)30.30 "Hg (Aug 19, 10:50 PM)
Low48 °F (Sep 3, 6:50 AM)30% (Aug 22, 12:50 PM)29.59 "Hg (Aug 24, 7:20 PM)
Average64 °F76%29.97 "Hg
* Reported Aug 19 1:20 PM — Sep 3 1:20 PM, Elmshorn, Weather by CustomWeather, © 2015

Note: Actual official high and low records may vary slightly from our data, if they occured in-between our weather recording intervals... More about our weather records

Advertising

Elmshorn weather history for previous 24 hours

 ConditionsComfort  
Time TempWeatherWind HumidityBarometerVisibility
1:20 PM
Thu, Sep 3
63 °FPassing clouds.10 mph52%29.92 "HgN/A
12:50 PM61 °FPassing clouds.8 mph63%29.92 "HgN/A
12:20 PM61 °FScattered clouds.9 mph63%29.92 "HgN/A
11:50 AM61 °FScattered clouds.7 mph68%29.92 "HgN/A
11:20 AM59 °FPartly sunny.9 mph68%29.92 "HgN/A
10:50 AM59 °FScattered clouds.9 mph68%29.92 "HgN/A
10:20 AM59 °FPartly sunny.10 mph68%29.92 "HgN/A
9:50 AM59 °FSunny.9 mph72%29.92 "Hg10 mi
9:20 AM57 °FSunny.8 mph77%29.92 "Hg10 mi
8:50 AM55 °FSunny.8 mph82%29.92 "Hg10 mi
8:20 AM54 °FSunny.6 mph88%29.92 "Hg10 mi
7:50 AM54 °FPassing clouds.7 mph88%29.92 "HgN/A
7:20 AM52 °FPassing clouds.5 mph88%29.92 "HgN/A
6:50 AM48 °FPassing clouds.3 mph94%29.92 "HgN/A
6:20 AM50 °FClear.6 mph94%29.92 "Hg10 mi
5:20 AM50 °FClear.6 mph88%29.92 "Hg10 mi
4:50 AM50 °FClear.3 mph94%29.92 "Hg10 mi
4:20 AM50 °FCool.5 mph94%29.92 "HgN/A
3:50 AM50 °FClear.6 mph94%29.92 "Hg10 mi
3:20 AM50 °FClear.5 mph88%29.95 "Hg10 mi
2:50 AM50 °FClear.2 mph88%29.95 "Hg10 mi
2:20 AM52 °FClear.3 mph88%29.95 "Hg10 mi
1:50 AM54 °FClear.6 mph82%29.95 "Hg10 mi
1:20 AM54 °FClear.5 mph82%29.95 "Hg10 mi
12:50 AM54 °FClear.6 mph82%29.95 "Hg10 mi
12:20 AM54 °FClear.6 mph82%29.95 "Hg10 mi
11:50 PM
Wed, Sep 2
55 °FClear.6 mph77%29.95 "Hg10 mi
11:20 PM55 °FClear.6 mph77%29.95 "Hg10 mi
10:50 PM57 °FClear.7 mph72%29.95 "Hg10 mi
10:20 PM59 °FClear.7 mph68%29.95 "Hg10 mi
9:50 PM59 °FClear.7 mph68%29.95 "Hg10 mi
9:20 PM57 °FClear.6 mph77%29.95 "Hg10 mi
8:50 PM57 °FPartly sunny.5 mph77%29.95 "HgN/A
8:20 PM59 °FScattered showers. Passing clouds.6 mph72%29.95 "HgN/A
7:50 PM61 °FPassing clouds.8 mph68%29.95 "HgN/A
7:20 PM63 °FScattered clouds.7 mph64%29.92 "HgN/A
6:50 PM63 °FScattered showers. Scattered clouds.15 mph64%29.92 "HgN/A
6:20 PM64 °FScattered clouds.15 mph56%29.92 "HgN/A
5:20 PM64 °FPartly sunny.14 mph56%29.92 "HgN/A
4:50 PM64 °FPartly sunny.13 mph60%29.92 "HgN/A
4:20 PM64 °FBroken clouds.9 mph60%29.92 "HgN/A
3:50 PM63 °FBroken clouds.12 mph59%29.92 "HgN/A
3:20 PM66 °FScattered clouds.16 mph52%29.92 "HgN/A
2:50 PM64 °FScattered clouds.16 mph56%29.92 "HgN/A
2:20 PM66 °FScattered clouds.16 mph56%29.92 "HgN/A
Weather by CustomWeather, © 2015

See weather overviewHow to use our weather pages